Location: Gälforsberget
(66.6500°N, 22.4167°E)
Time: 06:59:04
(UTC+00:00)

ARIANE 5 R/B - Pass Details

Date: 11 April 2026
Orbit: 614 x 648 km, 98.0° (Epoch: 14 September)

Event Time Altitude Azimuth Distance (km) Brightness Sun altitude
Exits shadow 21:02:50 21° 158° (SSE) 1,416 3.8 -13.1°
Maximum altitude 21:05:45 89° 253° (WSW) 630 2.5 -13.2°
Drops below altitude 10° 21:10:07 10° 339° (NNW) 2,009 6.7 -13.3°
Sets 21:12:20 0° 340° (NNW) 2,924 8.1 -13.4°
